Regional Weather Roundup
Issued by NWS

Home | Current Version | Previous Version | Graphics & Text | Print | Product List | Glossary On
Versions: 1 2 3 4 5 6 7 8 9 10 11 12 13 14 15 16 17 18 19 20 21 22 23 24 25 26 27 28 29 30 31 32 33 34 35 36 37 38 39 40 41 42 43 44 45 46 47 48 49 50
000
ASUS45 KTFX 301004
RWRMT
MONTANA HOURLY WEATHER ROUNDUP
NATIONAL WEATHER SERVICE GREAT FALLS MT
404 AM MDT SAT AUG 30 2014

NOTE: "FAIR" INDICATES FEW OR NO CLOUDS BELOW 12000 FEET WITH NO
SIGNIFICANT WEATHER AND/OR OBSTRUCTIONS TO VISIBILITY.

* THESE STATIONS ARE NOT UNDER NWS QUALITY CONTROL. THEY DO NOT
   REPORT WEATHER SUCH AS PRECIPITATION OR FOG.

MTZ001>007-043-301100-
WEST OF THE DIVIDE
CITY           SKY/WX    TMP DP  RH WIND       PRES   REMARKS
KALISPELL      CLOUDY    59  45  60 CALM      29.80F
MISSOULA       CLOUDY    66  43  43 NW6       29.89F
BUTTE          LGT RAIN  54  46  74 N7        30.00R
MULLAN PASS    CLOUDY    50  37  61 VRB6      29.96F
* LINCOLN      N/A       46  40  80 N2         N/A
* LOOKOUT PASS N/A       58  41  53 SE3        N/A
* POLSON       N/A       63  38  40 S2         N/A
* RONAN APT    CLOUDY    63  48  58 N/A        N/A
* SEELEY LAKE  N/A       64  38  38 NW12G21    N/A
* THOMP F APT  CLOUDY    56  43  62 N4         N/A
$$

MTZ008-052>055-301100-
SOUTHWEST MONTANA
CITY           SKY/WX    TMP DP  RH WIND       PRES   REMARKS
BOZEMAN        MOCLDY    61  48  62 S6        29.84S
DILLON         CLOUDY    63  45  52 S6        29.93R
W YELLOWSTONE  MOCLDY    48  45  89 SE8       30.04F
* THREE FORKS  CLOUDY    61  61 100 NW5        N/A
* BOULDER HILL N/A       54  38  55 N/A        N/A
* MONIDA PASS  N/A       55  43  64 SE10       N/A
* RAYNOLDS PAS N/A       52  29  41 SE12       N/A
* WHITEHALL    N/A       58  47  67 NW5G10     N/A
* WISE RIVER   N/A       51  44  77 E4G12      N/A
$$

MTZ009>010-012-014-046-048-049-054-301100-
EAST SLOPES AND CENTRAL MONTANA
CITY           SKY/WX    TMP DP  RH WIND       PRES   REMARKS
CUT BANK       CLOUDY    61  37  41 SW13      29.77S
GREAT FALLS    MOCLDY    59  48  67 W5        29.79R
HELENA         MOCLDY    59  45  60 NW3       29.85R
MALMSTROM AFB  MOCLDY    64  46  52 W3        29.80R
* CONRAD       CLOUDY    63  43  48 SW5        N/A
* EAST GLACIER N/A       60  35  39 W19G31     N/A
* MONARCH      N/A       56  45  67 SW3G9      N/A
* PENDROY      N/A       61  33  35 W14G19     N/A
* ROGERS PASS  N/A       57  34  42 E2G8       N/A
* SAINT MARY   N/A       62  35  37 S7G18      N/A
* SWEET GRASS  N/A       60  39  46 W9G15      N/A
$$

MTZ011-013-016-021-035-040-045-047-050-051-301100-
NORTH CENTRAL MONTANA
CITY           SKY/WX    TMP DP  RH WIND       PRES   REMARKS
HAVRE          CLOUDY    61  54  78 CALM      29.70F
LEWISTOWN      CLOUDY    61  54  78 N7        29.79F
* CHESTER      N/A       59  50  72 N/A        N/A
* DENTON       N/A       62  51  67 E8G13      N/A
* GEYSER       N/A       58  48  70 SW8        N/A
* JUDITH GAP   N/A       58  53  84 SW6        N/A
* LOMA         N/A       61  54  78 NE4        N/A
$$

MTZ017>020-022>027-061-062-301100-
NORTHEAST MONTANA
CITY           SKY/WX    TMP DP  RH WIND       PRES   REMARKS
GLASGOW        CLEAR     55  52  90 E14       29.79F
GLENDIVE       CLEAR     55  52  90 SE7       29.90F
JORDAN         CLEAR     61  52  72 SE12      29.78F
SIDNEY         CLEAR     55  52  90 S7        29.91F
WOLF POINT     CLEAR     59  52  78 SE7       29.83F
* BEAVER HILL  N/A       54  51  90 SE17       N/A
* CIRCLE       N/A       56  53  90 SE4        N/A
* LINDSAY DVD  N/A       50  50 100 E8         N/A
* NAVAJO       N/A       53  50  90 SE6G11     N/A
* SACO         N/A       59  53  81 E13G18     N/A
$$

MTZ028>042-056>058-301100-
SOUTHCENTRAL AND SOUTHEAST MONTANA
CITY           SKY/WX    TMP DP  RH WIND       PRES   REMARKS
BAKER          CLEAR     54  52  93 SE12      29.93F
BILLINGS       PTCLDY    59  52  78 NW6       29.82F
LIVINGSTON     CLOUDY    66  43  43 VRB3      29.83F
MILES CITY     CLEAR     61  52  72 SE18G26   29.83F
* LAUREL APT   MOCLDY    57  50  78 N/A        N/A
* ROUNDUP APT  MOCLDY    55  50  83 N/A        N/A
* ALZADA       N/A       54  52  93 E5         N/A
* HYSHAM       N/A       66  46  49 SE4G17     N/A
* LAME DEER    N/A       61  49  65 S10G16     N/A
* REED POINT   N/A       59  57  93 E3         N/A
* ROSCOE HILL  N/A       63  36  37 N3         N/A
$$

REGIONAL REPORTS...DAKOTAS
CITY           SKY/WX    TMP DP  RH WIND       PRES   REMARKS
WILLISTON      CLEAR     57  52  83 SE7       29.91F
DICKINSON      CLEAR     52  48  86 SE9       29.94F
BEACH          N/A       52  52 100 SE8       29.93F
CROSBY         CLEAR     54  54 100 S10       29.92F
TIOGA          FOG       45  45 100 CALM      29.97F
WATFORD CITY   CLEAR     48  48 100 E5        29.92F
BISMARCK       FOG       48  48 100 CALM      29.99S VSB 1
GRAND FORKS    CLEAR     50  48  93 NW5       29.94R
FARGO          CLOUDY    57  52  83 N13       29.90R
BUFFALO SD     CLEAR     54  52  93 SE8       29.89F
RAPID CITY     CLEAR     54  50  86 S5        29.98F
$$

REGIONAL REPORTS...WYOMING/IDAHO/WASHINGTON
CITY           SKY/WX    TMP DP  RH WIND       PRES   REMARKS
GILLETTE       FAIR      57  52  83 S13       29.93F
SHERIDAN       CLEAR     48  45  89 W3        29.87F
CODY           PTCLDY    63  45  52 S5        29.93S
YELLOWSTONE LA MOCLDY    45  41  86 CALM      30.15F
SALMON         CLOUDY    66  43  43 E3        29.91R
MULLAN PASS    CLOUDY    50  37  61 VRB6      29.96S
SAND POINT     PTCLDY    54  45  72 N3        29.81S
SPOKANE        PTCLDY    57  43  60 SW7       29.84F

$$



USA.gov is the U.S. government's official web portal to all federal, state and local government web resources and services.